Regional Weather Roundup
Issued by NWS

Home | Current Version | Previous Version | Graphics & Text | Print | Product List | Glossary On
Versions: 1 2 3 4 5 6 7 8 9 10 11 12 13 14 15 16 17 18 19 20 21 22 23 24 25 26 27 28 29 30 31 32 33 34 35 36 37 38 39 40 41 42 43 44 45 46 47 48 49 50
000
ASUS43 KMKX 281721
RWRWI

WISCONSIN REGIONAL WEATHER ROUNDUP
NATIONAL WEATHER SERVICE MILWAUKEE/SULLIVAN WI
1100 AM CST FRI NOV 28 2014

NOTE: "FAIR" INDICATES FEW OR NO CLOUDS BELOW 12,000 FEET WITH NO
SIGNIFICANT WEATHER AND/OR OBSTRUCTIONS TO VISIBILITY.

WIZ001-002-006>008-014>016-023>028-281800-
NORTHWEST WISCONSIN

CITY           SKY/WX    TMP DP  RH WIND       PRES   REMARKS
SUPERIOR ARPT  LGT SNOW  13   9  85 CALM      30.03F
ASHLAND        CLOUDY    12   8  84 E3        30.05F
HAYWARD        CLOUDY    13   7  77 S6        29.99F HAZE    WCI   4
SIREN          LGT SNOW  15   9  79 SE8       29.99F WCI   4
CUMBERLAND     LGT SNOW  14   9  79 SE8       29.98F WCI   3
RICE LAKE      FLURRIES  15  10  80 SE9       30.01F WCI   3
CHETEK         FLURRIES  15   9  80 SE8       30.01F WCI   3
LADYSMITH      FLURRIES  15  10  80 SE6       30.03F WCI   6
EAU CLAIRE     CLOUDY    16  10  77 SE10      30.01F WCI   4
MENOMONIE      CLOUDY    17  11  76 E10       30.00F WCI   5
NEW RICHMOND   CLOUDY    17  11  77 SE5       29.98F WCI   9
OSCEOLA        CLOUDY    16  10  79 SE9       30.01F WCI   4
$$

WIZ003>005-009-010-017-018-281800-
NORTH CENTRAL WISCONSIN

CITY           SKY/WX    TMP DP  RH WIND       PRES   REMARKS
MANITOWISH WTR LGT SNOW  10   8  92 S6        30.00F WCI   0
ARBOR VITAE    LGT SNOW  11   8  85 SE7       30.00F WCI   1
WOODRUFF       LGT SNOW  11   8  85 SE7       30.00F WCI   1
RHINELANDER    LGT SNOW  10   6  84 SE5       30.01F FOG     WCI   2
EAGLE RIVER    LGT SNOW  11   6  79 CALM      30.01F VSB 3/4
LAND O LAKES   LGT SNOW  11   8  84 SE5       30.01F VSB 1   WCI   3
PHILLIPS       LGT SNOW  10   7  85 SE5       30.00F WCI   2
TOMAHAWK       LGT SNOW  11   8  85 CALM      30.02F
MEDFORD        FLURRIES  13   8  83 SE7       30.00F WCI   2
MERRILL        FLURRIES  12   8  83 SE6       30.02F WCI   2
$$

WIZ029-030-035-036-043>047-281800-
CENTRAL WISCONSIN

CITY           SKY/WX    TMP DP  RH WIND       PRES   REMARKS
WAUSAU         CLOUDY    13   8  81 SE8       30.03F WCI   2
MOSINEE        CLOUDY    12  10  92 SE8       30.03F WCI   1
MARSHFIELD     CLOUDY    16  10  77 SE8       30.03S WCI   5
STEVENS POINT  CLOUDY    13  10  85 SE7       30.04F WCI   3
WAUPACA        CLOUDY    19  13  79 SE10      30.09F WCI   7
WAUTOMA        CLOUDY    18  13  80 SE10      30.08F WCI   6
WISC RAPIDS    CLOUDY    16  10  77 SE7       30.05F WCI   6
CAMP DOUGLAS   CLOUDY    20  15  80 SE9       30.03F WCI  10
$$

WIZ011>013-019>022-031-037>040-048>050-281800-
NORTHEAST WISCONSIN

CITY           SKY/WX    TMP DP  RH WIND       PRES   REMARKS
ANTIGO         LGT SNOW   9   6  87 SE8       30.03F WCI  -3
SHAWANO        CLOUDY    17  11  80 SE7       30.12F WCI   7
OCONTO         CLOUDY    17  13  88 S3        30.15F
STURGEON BAY   CLOUDY    16   9  73 S6        30.13F WCI   7
GREEN BAY      LGT SNOW  18  14  84 S9        30.13F FOG     WCI   7
MANITOWOC      LGT SNOW  21  18  88 S8        30.15F FOG     WCI  11
APPLETON       CLOUDY    18  12  79 SE12      30.11F WCI   5
CLINTONVILLE   LGT SNOW  18  12  79 SE7       30.11F WCI   8
OSHKOSH        CLOUDY    19  13  77 MISG      30.11F
$$

WIZ032>034-041-042-053>061-281800-
SOUTHWEST WISCONSIN

CITY           SKY/WX    TMP DP  RH WIND       PRES   REMARKS
LA CROSSE      SUNNY     24  12  60 S9        30.02F WCI  14
SPARTA         MOSUNNY   23  12  63 S8        30.04F WCI  14
VIROQUA        SUNNY     22  13  68 S10       29.99F WCI  11
BOSCOBEL       SUNNY     25  13  60 VRB3      30.05F
PRAIRIE DU CHI PTSUNNY   24  13  64 E8        30.03F WCI  14
PLATTEVILLE    PTSUNNY   23  16  74 SE14      30.02F WCI  10
$$

WIZ056-057-062-063-064-067-068-281800-
SOUTH CENTRAL WISCONSIN

CITY           SKY/WX    TMP DP  RH WIND       PRES   REMARKS
REEDSBURG      PTSUNNY   21  12  68 S7        30.04F WCI  13
BARABOO/DELLS  PTSUNNY   21  13  69 SE12      30.03F WCI   9
LONE ROCK      SUNNY     26  11  52 SE7       30.06F WCI  18
MINERAL POINT  SUNNY     25  16  68 SE16G23   30.01F WCI  12
MADISON        PTSUNNY   21  13  71 S16       30.07F WCI   7
MIDDLETON      PTSUNNY   25  14  62 S16       30.05F WCI  12
WATERTOWN      CLOUDY    21  14  74 SE12      30.10F WCI   9
MONROE         CLOUDY    25  18  74 SE16      30.05F WCI  12
JANESVILLE     CLOUDY    23  14  68 MISG      30.09F
$$

WIZ051-052-058>065-066-070>072-281800-
SOUTHEAST WISCONSIN

CITY           SKY/WX    TMP DP  RH WIND       PRES   REMARKS
MILWAUKEE      CLOUDY    22  14  71 S10       30.15F WCI  11
WAUKESHA       PTSUNNY   19  12  73 SE12      30.14F WCI   7
MILWAUKEE/TIMM CLOUDY    21  12  68 S7        30.17F WCI  13
RACINE         CLOUDY    24  13  62 S13       30.16F WCI  12
BURLINGTON     PTSUNNY   22  14  71 SE13      30.13F WCI  10
KENOSHA        CLOUDY    23  14  68 S10       30.14F WCI  12
FOND DU LAC    CLOUDY    19  13  77 S13       30.11F WCI   6
SHEBOYGAN      LGT SNOW  20  15  81 S10       30.14F WCI   9
WEST BEND      CLOUDY    21  14  73 SE6       30.13F WCI  14
JUNEAU         CLOUDY    19  13  76 SE13      30.10F WCI   7
$$

LSZ147-162-281800-
LAKE SUPERIOR

STATION/POSITION TIME  TEMP    WIND        PRES    WAVE
                       AIR SEA DIR/SP/G            HT/PER
                 (UTC) (F)     (DEG/KT/KT) (MB)    (FT/S)
DEVILS ISLAND    1700   17     140/  6/  8 1019.2F
PORT WING        1640   15     160/  4/  6 1017.6F
SAXON HARBOR     1640   14      CALM  /  1 1017.9F
$$

LMZ867-665-643>646-281800-
LAKE MICHIGAN

STATION/POSITION TIME  TEMP    WIND        PRES    WAVE
                       AIR SEA DIR/SP/G            HT/PER
                 (UTC) (F)     (DEG/KT/KT) (MB)    (FT/S)
CHAMBERS ISLAND  1600   19     200/  4/ 10 1022.0F
N MID LAKE BUOY  1650   25 42  230/ 14/ 19 1022.2F   2/ 3
NORTHPORT PIER   1617   19     180/  3/  6 1022.0F
ALGOMA LAKESHORE 1543          270/  8/ 10   N/A
KEWAUNEE LAKESHO 1700   17     260/  3/  7 1020.3F
SHEBOYGAN LAKESH 1700   24 34  210/ 11/ 14 1021.9F
PORT WASHINGTON  1620   22     210/  7/ 12 1022.7F
MILWAUKEE LAKESH 1700   23     190/ 10/ 12   N/A
S MID LAKE BUOY  1650   28 42  190/ 17/ 21 1023.1F   3/ 4
KENOSHA   LAKESH 1700   25     170/ 17/ 21 1020.7F
$$

TC  - TEMPERATURE IN CELSIUS
VSB - VISIBILITY IN STATUTE MILES
WCI - WIND CHILL INDEX
HX  - HEAT INDEX




USA.gov is the U.S. government's official web portal to all federal, state and local government web resources and services.